sat.trackr.live / text

‹ back to catalog

STARLINK-4359

NORAD 53226 · 2022-084AP

PAYLOAD ACTIVE UNKNOWN

§ Identity

Operator
Country
US
Launch date
2022-07-22
Launch site
AFWTR
Launch vehicle
Mass (kg)
RCS (m²)

Purposes: comms

External: N2YO · Heavens-Above · Gunter

§ Orbital elements

Epoch: 2026-05-25T03:26:52.154016Z

Period
95.64 min
Inclination
97.4472°
Eccentricity
0.0001232
Mean motion
15.05651674 rev/d
Perigee alt
548.7 km
Apogee alt
550.4 km
Semi-major
6,927.6 km
B*
-4.4920e-5
RAAN
205.0738°
Arg perigee
126.2034°
Mean anomaly
233.9307°
Rev number
21,081

§ Raw data

STARLINK-43591 53226U 22084AP  26145.14365919 -.00000707  00000+0 -44920-4 0  99982 53226  97.4472 205.0738 0001232 126.2034 233.9307 15.05651674210813

JSON: /api/v1/satellites/53226 · /tle

For live sub-satellite position, see the globe view (requires WebGL).

§ Visibility from observer

Set your observer location to see the next 7 days of passes ≥ 10°. The values pass through the URL so the page stays shareable.

No JS? Fill the form by hand. The geolocation button needs JavaScript.